Regional Weather Roundup
Issued by NWS Northern Indiana

Home | Current Version | Previous Version | Graphics & Text | Print | Product List | Glossary On
Versions: 1 2 3 4 5 6 7 8 9 10 11 12 13 14 15 16 17 18 19 20 21 22 23 24 25 26 27 28 29 30 31 32 33 34 35 36 37 38 39 40 41 42 43 44 45 46 47 48 49 50
000
ASUS43 KIWX 250710
RWRIWX

KIWX WEATHER ROUNDUP
NATIONAL WEATHER SERVICE NORTHERN INDIANA
200 AM EST THU DEC 25 2014

NOTE: "FAIR" INDICATES FEW OR NO CLOUDS BELOW 12,000 FEET WITH NO
SIGNIFICANT WEATHER AND/OR OBSTRUCTIONS TO VISIBILITY.

* THESE STATIONS ARE NOT UNDER NWS QUALITY CONTROL. THEY ALSO MAY NOT
  REPORT WEATHER SUCH AS PRECIPITATION OR FOG.

INZ001>027-250800-
NORTHERN INDIANA

CITY           SKY/WX    TMP DP  RH WIND       PRES   REMARKS
GARY*          CLOUDY    38  30  72 W10       29.68R
VALPARAISO     CLOUDY    36  32  85 W14       29.68R
MICHIGAN CITY* CLOUDY    36  32  87 W10G23    29.67R
LAPORTE*       CLOUDY    38  35  90 W13G20    29.67R
KNOX*          CLOUDY    36  31  82 W13G18    29.67R
SOUTH BEND     CLOUDY    37  33  85 W16G22    29.65R
GOSHEN         CLOUDY    36  33  89 W18       29.64R
MONTICELLO*    CLOUDY    36  33  91 W15G21    29.72R
LOGANSPORT*    CLOUDY    34  32  93 W17G24    29.71R WCI  23
ROCHESTER*     CLOUDY    37  36  93 W13G22    29.68R
WARSAW*        DRIZZLE   34  34 100 W14       29.65R WCI  24
ANGOLA*        CLOUDY    36  34  93 W12       29.60R
FORT WAYNE     DRIZZLE   36  33  89 W17G25    29.66R
HUNTINGTON*    CLOUDY    35  33  95 W14G21    29.67R WCI  25
PERU/GRISSOM   CLOUDY    36  36 100 W18G28    29.69R
MARION*        CLOUDY    35  33  94 W20       29.71R WCI  24

$$
INZ028>050-250800-
CENTRAL INDIANA

CITY           SKY/WX    TMP DP  RH WIND       PRES   REMARKS
LAFAYETTE      CLOUDY    36  33  89 W13G22    29.75R
KOKOMO*        CLOUDY    36  32  87 W20       29.71R
MUNCIE*        CLOUDY    36  33  89 W14G24    29.71R
INDIANAPOLIS   LGT RAIN  34  33  96 W16       29.76R WCI  24

$$
MIZ043>046-050>051-056>058-064>065-071>073-077>080-250800-
SOUTHWEST LOWER MICHIGAN

CITY           SKY/WX    TMP DP  RH WIND       PRES   REMARKS
BATTLE CREEK   LGT RAIN  36  33  89 SW12      29.57R FOG
BENTON HARBOR  CLOUDY    37  34  89 W16       29.62R
COLDWATER*     LGT RAIN  36  35  96 MISG      29.58R
HILLSDALE*     LGT RAIN  36  36 100 SW10G17   29.57R
HOLLAND        CLOUDY    39  33  79 W15       29.57R
GRAND RAPIDS   LGT RAIN  36  34  92 W14       29.54R FOG
KALAMAZOO      LGT RAIN  37  34  89 W10       29.58R FOG
STURGIS*       MIX PCPN  36  36 100 W16       29.60R
THREE RIVERS*  LGT RAIN  36  35  94 W9        29.61R

$$
OHZ001>008-015>018-024>025-250800-
NORTHWEST OHIO

CITY           SKY/WX    TMP DP  RH WIND       PRES   REMARKS
WAUSEON*       MIX PCPN  37  36  93 SW15G22   29.61R
DEFIANCE       LGT RAIN  37  33  85 SW13G22   29.64R
FINDLAY        CLOUDY    38  34  85 SW18G25   29.63R
TOLEDO EXPRESS CLOUDY    37  34  89 W20G29    29.61R
TOLEDO METCALF CLOUDY    38  33  82 W20G25    29.62R
LIMA           LGT RAIN  38  34  85 SW20G28   29.66R

$$
AND FOR LAKE MICHIGAN COASTAL AND OPEN LAKE BUOY OBSERVATIONS

STATION/POSITION TEMP    WIND        PRES    VSBY  WAVE
                 AIR SEA DIR/SP/G                  HT/PER
                 (F)     (DEG/KT/KT) (MB)    (MI)  (FT/S)
CALUMET HARBOR    37     250/  7/ 11 1003.6R
MICHIGAN CITY     37     240/ 24/ 27   N/A
SAINT JOSEPH      38     250/ 16/ 22 1004.4R

$$
&&


USA.gov is the U.S. government's official web portal to all federal, state and local government web resources and services.